[[{"header":{"parameterUnit":"m.s-1","parameterCategory":1,"la1":30.2991,"la2":30.254,"lo1":-89.0895,"lo2":-89.0444,"dy":0.0017,"dx":0.0017,"nx":28,"ny":28,"refTime":"2024-04-21T21:00:00:Z","depth":0,"parameterNumber":2,"parameterNumberName":"U-component_of_WINDS"},"data":[0,0,0,0,0,0,0,0,0,0,0,0,0,0,0,0,0,0,0,0,0,0,0,0,0,0,0,0,0,0,0,0,0,0,0,0,0,0,0,0,0,0,0,0,0,0,0,0,0,0,0,0,0,0,0,0,0,0,-4.1073,-4.1074,0,-4.1153,-4.1154,-4.1155,-4.1079,-4.1076,-4.1073,-4.107,-4.1149,-4.1154,-4.1159,0,0,0,0,0,0,0,0,0,0,0,0,0,-4.0849,-4.0853,-4.1073,-4.1074,-4.1075,-4.1153,-4.1154,-4.1155,-4.108,-4.1076,-4.1072,-4.1069,-4.1148,-4.1153,-4.1159,0,0,0,0,0,0,0,0,0,0,0,0,0,-4.0939,-4.0855,-4.1072,-4.1046,-4.1045,-4.1153,-4.1154,-4.1156,-4.1081,-4.1076,-4.1071,-4.1067,-4.1146,-4.1153,-4.116,-4.1297,0,0,-4.1183,-4.1186,0,0,0,0,0,0,0,0,-4.0934,-4.0948,-4.1049,-4.1048,-4.1047,-4.1102,-4.1104,-4.1203,-4.1082,-4.1067,-4.107,-4.1065,-4.1137,-4.1145,-4.117,-4.13,-4.1304,-4.1183,-4.1188,-4.1191,-4.1193,0,0,0,0,0,0,0,-4.0928,-4.0944,-4.1104,-4.1051,-4.1049,-4.1029,-4.1037,-4.1122,-4.1126,-4.1068,-4.1063,-4.1073,-4.1135,-4.1163,-4.1171,-4.1305,-4.1183,-4.119,-4.1194,-4.1197,-4.1549,-4.1554,0,0,0,0,0,0,-4.0925,-4.0939,-4.1102,-4.1107,-4.0978,-4.1037,-4.1046,-4.1089,-4.1125,-4.1126,-4.1077,-4.107,-4.1152,-4.1162,-4.1173,-4.1333,-4.1191,-4.1198,-4.1202,-4.1544,-4.155,-4.1555,0,0,0,0,0,0,-4.0921,-4.094,-4.1098,-4.1022,-4.104,-4.1046,-4.1094,-4.1093,-4.112,-4.1132,-4.1132,-4.1105,-4.1149,-4.1163,-4.1266,-4.1335,-4.1201,-4.1208,-4.1538,-4.1546,-4.1553,-4.1656,0,0,0,0,0,0,-4.0915,-4.0939,-4.0992,-4.1023,-4.1045,-4.1192,-4.1099,-4.1097,-4.1133,-4.1124,-4.1158,-4.1159,-4.1147,-4.1256,-4.1274,-4.1343,-4.1214,-4.1532,-4.1542,-4.155,-4.1646,-4.1666,-4.1683,0,0,0,0,0,-4.0907,-4.1018,-4.0995,-4.1015,-4.1111,-4.1196,-4.1208,-4.1192,-4.1139,-4.1191,-4.1199,-4.1158,-4.1326,-4.1267,-4.1286,-4.1359,-4.1528,-4.1539,-4.155,-4.1638,-4.1662,-4.1682,0,0,0,0,0,0,-4.0993,-4.1021,-4.0997,-4.1121,-4.1157,-4.1183,-4.1248,-4.1218,-4.1268,-4.1257,-4.1235,-4.1243,-4.1352,-4.1366,-4.13,-4.1492,-4.1418,-4.1433,-4.1478,-4.1501,-4.1519,-4.1512,-4.122,0,0,0,0,0,-4.1027,-4.1095,-4.1115,-4.1223,-4.1242,-4.1243,-4.1279,-4.1264,-4.1299,-4.1313,-4.1329,-4.1364,-4.1423,-4.1463,-4.152,-4.1649,-4.1654,-4.1708,-4.1727,-4.1741,-4.1754,-4.1821,-4.1845,-4.1592,-4.1592,-4.1592,0,0,-4.1097,-4.1121,-4.1165,-4.1241,-4.1267,-4.1335,-4.1256,-4.1332,-4.1382,-4.1325,-4.1422,-4.1435,-4.1473,-4.1589,-4.1641,-4.1604,-4.1826,-4.1756,-4.1767,-4.1772,-4.1835,-4.1859,-4.188,-4.1599,-4.1598,-4.1597,0,0,-4.1259,-4.1285,-4.1376,-4.1404,-4.1445,-4.1444,-4.1466,-4.1497,-4.1503,-4.1602,-4.1559,-4.1619,-4.1723,-4.1751,-4.1779,-4.1952,-4.1915,-4.1971,-4.2064,-4.213,-4.215,-4.2167,-4.2226,-4.2248,-4.1984,-4.1984,-4.1984,0,-4.134,-4.1443,-4.1427,-4.1507,-4.154,-4.1493,-4.1584,-4.1612,-4.1668,-4.1692,-4.165,-4.178,-4.1802,-4.1922,-4.1965,-4.199,-4.2012,-4.1965,-4.2149,-4.2166,-4.2182,-4.2238,-4.226,-4.199,-4.199,-4.1989,-4.1988,0,-4.154,-4.1612,-4.1681,-4.1738,-4.178,-4.1865,-4.186,-4.1904,-4.1886,-4.1889,-4.1989,-4.2014,-4.2073,-4.2101,-4.2084,-4.222,-4.2195,-4.2152,-4.2076,-4.2213,-4.2265,-4.2286,-4.2,-4.1997,-4.1995,-4.1994,0,0,-4.1757,-4.1803,-4.1829,-4.1853,-4.1894,-4.1949,-4.2031,-4.2091,-4.2128,-4.2169,-4.2235,-4.2325,-4.2285,-4.2317,-4.2302,-4.2361,-4.2493,-4.231,-4.231,-4.234,-4.2641,-4.2671,-4.2696,-4.247,-4.2474,-4.2477,-4.2636,0,-4.1918,-4.2062,-4.2049,-4.2185,-4.225,-4.2206,-4.2278,-4.231,-4.2316,-4.2371,-4.2376,-4.2439,-4.2383,-4.2402,-4.2457,-4.2465,-4.2552,-4.2454,-4.2529,-4.2532,-4.2518,-4.2724,-4.2756,-4.2905,-4.2657,-4.266,-4.2663,0,-4.2124,-4.2173,-4.2315,-4.2346,-4.2372,-4.2437,-4.2489,-4.2544,-4.2579,-4.2579,-4.2614,-4.259,-4.2671,-4.2596,-4.2706,-4.264,-4.267,-4.2679,-4.2684,-4.2688,-4.2603,-4.273,-4.2952,-4.2974,-4.2695,-4.2693,-4.269,0,-4.2265,-4.2366,-4.2463,-4.2486,-4.2524,-4.257,-4.2588,-4.2619,-4.2655,-4.2701,-4.2724,-4.2779,-4.2808,-4.285,-4.284,-4.2787,-4.2952,-4.2877,-4.2952,-4.2952,-4.2986,-4.2983,-4.3213,-4.3011,-4.3011,-4.3011,-4.301,0,-4.2444,-4.2532,-4.2527,-4.2586,-4.2683,-4.2668,-4.2764,-4.2776,-4.2804,-4.2864,-4.283,-4.2887,-4.2872,-4.2928,-4.2921,-4.3012,-4.3026,-4.3027,-4.3023,-4.3028,-4.3028,-4.3045,-4.3033,-4.3017,-4.3015,-4.3014,-4.3013,0,-4.2615,-4.2616,-4.2719,-4.2747,-4.2756,-4.2826,-4.2849,-4.2905,-4.2909,-4.2985,-4.3002,-4.3007,-4.3071,-4.3066,-4.3138,-4.3133,-4.3245,-4.3231,-4.3233,-4.3229,-4.3303,-4.3295,-4.355,-4.3581,-4.3362,-4.3364,-4.3366,0,-4.2728,-4.2795,-4.2831,-4.2869,-4.289,-4.2953,-4.2989,-4.2977,-4.3016,-4.3061,-4.3111,-4.3172,-4.322,-4.3324,-4.3333,-4.3388,-4.3372,-4.3458,-4.338,-4.3382,-4.337,-4.3365,-4.337,-4.3472,-4.3475,-4.3477,-4.3479,0,-4.2928,-4.2925,-4.2979,-4.3034,-4.3079,-4.3122,-4.316,-4.3193,-4.3185,-4.323,-4.3296,-4.3333,-4.3407,-4.3467,-4.3519,-4.3536,-4.3505,-4.3504,-4.3523,-4.3527,-4.3524,-4.3524,-4.3271,-4.3497,-4.3495,-4.3494,-4.3493,-4.3492,-4.3071,-4.3128,-4.3161,-4.3223,-4.3251,-4.3288,-4.3341,-4.3351,-4.3406,-4.3465,-4.3455,-4.3528,-4.356,-4.3627,-4.3649,-4.3705,-4.3674,-4.3703,-4.371,-4.3716,-4.3723,-4.3519,-4.3715,-4.3714,-4.3714,-4.3713,-4.3713,0,-4.3266,-4.3286,-4.3343,-4.3398,-4.3446,-4.3416,-4.3457,-4.3498,-4.3563,-4.3597,-4.3645,-4.3719,-4.3777,-4.3792,-4.3847,-4.3889,-4.3876,-4.3904,-4.3899,-4.3902,-4.375,-4.3725,-4.3913,-4.3913,-4.3913,-4.3913,-4.3913,-4.3913,-4.3373,-4.3466,-4.3467,-4.3573,-4.3592,-4.3663,-4.3689,-4.3722,-4.3748,-4.3833,-4.3882,-4.3891,-4.3917,-4.3974,-4.4025,-4.4028,-4.4048,-4.4081,-4.4078,-4.3934,-4.3914,-4.3894,-4.3871,-4.4086,-4.4087,-4.4225,-4.4227,-4.4228]},{"header":{"parameterUnit":"m.s-1","parameterCategory":1,"la1":30.2991,"la2":30.254,"lo1":-89.0895,"lo2":-89.0444,"dy":0.0017,"dx":0.0017,"nx":28,"ny":28,"refTime":"2024-04-21T21:00:00:Z","depth":0,"parameterNumber":3,"parameterNumberName":"V-component_of_WINDS"},"data":[0,0,0,0,0,0,0,0,0,0,0,0,0,0,0,0,0,0,0,0,0,0,0,0,0,0,0,0,0,0,0,0,0,0,0,0,0,0,0,0,0,0,0,0,0,0,0,0,0,0,0,0,0,0,0,0,0,0,-0.5366,-0.5367,0,-0.5404,-0.5405,-0.5405,-0.5465,-0.5466,-0.5467,-0.5468,-0.5507,-0.5507,-0.5507,0,0,0,0,0,0,0,0,0,0,0,0,0,-0.5343,-0.5343,-0.5366,-0.5367,-0.5367,-0.5404,-0.5405,-0.5405,-0.5465,-0.5466,-0.5468,-0.5469,-0.5507,-0.5507,-0.5507,0,0,0,0,0,0,0,0,0,0,0,0,0,-0.5364,-0.5343,-0.5366,-0.5401,-0.5405,-0.5404,-0.5405,-0.5406,-0.5465,-0.5466,-0.5468,-0.547,-0.5507,-0.5507,-0.5507,-0.5474,0,0,-0.5507,-0.5507,0,0,0,0,0,0,0,0,-0.5363,-0.5365,-0.5396,-0.5399,-0.5403,-0.5432,-0.5411,-0.5429,-0.5464,-0.5442,-0.5468,-0.547,-0.548,-0.5483,-0.5486,-0.5476,-0.5478,-0.5507,-0.5507,-0.5507,-0.5507,0,0,0,0,0,0,0,-0.5361,-0.5364,-0.5381,-0.5396,-0.54,-0.5415,-0.542,-0.5414,-0.5452,-0.5444,-0.5449,-0.5452,-0.5483,-0.5486,-0.5488,-0.5478,-0.5507,-0.5507,-0.5507,-0.5507,-0.5441,-0.544,0,0,0,0,0,0,-0.5355,-0.5362,-0.538,-0.5382,-0.5387,-0.5414,-0.5419,-0.5421,-0.5452,-0.5458,-0.5451,-0.5455,-0.5485,-0.5487,-0.5489,-0.5452,-0.5507,-0.5507,-0.5507,-0.5443,-0.5441,-0.5439,0,0,0,0,0,0,-0.5354,-0.5356,-0.5379,-0.5373,-0.5377,-0.5412,-0.5414,-0.5421,-0.5424,-0.5457,-0.5464,-0.5448,-0.5487,-0.5489,-0.5477,-0.5454,-0.5507,-0.5507,-0.5445,-0.5443,-0.544,-0.5378,0,0,0,0,0,0,-0.5353,-0.5355,-0.5344,-0.5373,-0.5377,-0.5366,-0.5412,-0.542,-0.5424,-0.543,-0.5456,-0.5462,-0.5488,-0.5477,-0.5477,-0.5455,-0.5507,-0.5447,-0.5444,-0.5441,-0.5382,-0.5374,-0.5366,0,0,0,0,0,-0.5352,-0.5325,-0.5343,-0.5345,-0.5364,-0.5365,-0.5368,-0.5399,-0.5422,-0.5411,-0.5431,-0.5461,-0.5457,-0.5475,-0.5476,-0.5454,-0.5449,-0.5445,-0.5441,-0.5386,-0.5375,-0.5366,0,0,0,0,0,0,-0.5293,-0.533,-0.535,-0.5332,-0.5345,-0.5375,-0.5362,-0.5387,-0.5394,-0.5399,-0.5437,-0.5442,-0.5425,-0.5438,-0.5458,-0.5423,-0.5457,-0.5453,-0.5415,-0.5405,-0.5397,-0.5394,-0.5507,0,0,0,0,0,-0.5277,-0.5276,-0.5308,-0.5288,-0.5294,-0.5326,-0.5328,-0.5351,-0.5366,-0.5372,-0.5392,-0.5405,-0.5406,-0.5407,-0.541,-0.5385,-0.539,-0.5369,-0.5361,-0.5355,-0.5351,-0.5336,-0.5327,-0.5426,-0.5426,-0.5426,0,0,-0.5246,-0.5266,-0.5262,-0.5277,-0.529,-0.5286,-0.5331,-0.5325,-0.5323,-0.5371,-0.5361,-0.5375,-0.5392,-0.5373,-0.5366,-0.5384,-0.5324,-0.535,-0.5344,-0.5344,-0.5331,-0.5322,-0.5314,-0.5424,-0.5424,-0.5425,0,0,-0.5187,-0.5202,-0.5187,-0.5198,-0.5217,-0.5239,-0.5235,-0.5261,-0.5273,-0.5263,-0.5299,-0.5296,-0.5298,-0.5308,-0.5314,-0.5256,-0.5283,-0.5256,-0.5214,-0.52,-0.5192,-0.5185,-0.5163,-0.5155,-0.5252,-0.5252,-0.5252,0,-0.5145,-0.5142,-0.5176,-0.5168,-0.5172,-0.5215,-0.5199,-0.5209,-0.5228,-0.523,-0.525,-0.5252,-0.5267,-0.525,-0.5235,-0.5239,-0.5235,-0.5253,-0.519,-0.5184,-0.5178,-0.5158,-0.5149,-0.5248,-0.5249,-0.5249,-0.525,0,-0.5089,-0.5085,-0.5071,-0.5087,-0.5091,-0.5079,-0.511,-0.5109,-0.5131,-0.515,-0.5138,-0.5157,-0.5164,-0.5162,-0.5184,-0.5148,-0.5158,-0.5183,-0.5219,-0.5165,-0.5146,-0.5138,-0.5243,-0.5245,-0.5246,-0.5247,0,0,-0.4993,-0.5028,-0.5022,-0.5029,-0.5053,-0.5051,-0.504,-0.5047,-0.5044,-0.5056,-0.5047,-0.5047,-0.507,-0.5076,-0.5099,-0.5087,-0.5038,-0.5114,-0.5115,-0.5098,-0.4997,-0.4977,-0.4968,-0.5056,-0.5055,-0.5054,-0.4996,0,-0.4938,-0.4922,-0.4952,-0.4929,-0.4925,-0.4965,-0.4956,-0.4968,-0.4985,-0.4985,-0.5004,-0.5002,-0.5034,-0.5038,-0.5027,-0.5046,-0.5018,-0.5051,-0.5047,-0.5047,-0.5041,-0.4959,-0.4938,-0.4882,-0.4989,-0.4988,-0.4987,0,-0.4872,-0.4879,-0.4855,-0.4878,-0.4878,-0.4869,-0.4877,-0.4876,-0.489,-0.4903,-0.4909,-0.4936,-0.4926,-0.496,-0.4946,-0.4968,-0.4968,-0.4977,-0.4975,-0.4976,-0.5013,-0.4956,-0.4865,-0.4856,-0.4976,-0.4977,-0.4977,0,-0.4803,-0.4807,-0.4793,-0.4798,-0.4825,-0.4817,-0.4828,-0.4844,-0.4846,-0.4853,-0.4854,-0.4859,-0.4862,-0.4865,-0.4892,-0.4915,-0.4874,-0.4911,-0.4884,-0.4883,-0.4873,-0.4873,-0.4781,-0.4874,-0.4875,-0.4875,-0.4875,0,-0.4737,-0.4721,-0.4762,-0.4753,-0.4735,-0.4769,-0.4751,-0.4765,-0.4779,-0.4773,-0.4808,-0.4802,-0.4838,-0.4836,-0.4857,-0.4841,-0.4842,-0.4852,-0.4857,-0.4848,-0.4847,-0.4849,-0.4853,-0.4873,-0.4873,-0.4873,-0.4874,0,-0.4658,-0.4685,-0.4672,-0.4698,-0.4704,-0.469,-0.4712,-0.4704,-0.4723,-0.4715,-0.4715,-0.4744,-0.4743,-0.477,-0.4774,-0.4788,-0.4762,-0.4776,-0.4757,-0.4761,-0.4732,-0.4734,-0.4637,-0.4625,-0.4727,-0.4726,-0.4725,0,-0.4614,-0.4602,-0.4627,-0.4625,-0.4634,-0.4632,-0.4633,-0.4666,-0.4666,-0.468,-0.4671,-0.4672,-0.4674,-0.4669,-0.4691,-0.4693,-0.4706,-0.4672,-0.4707,-0.4697,-0.4704,-0.4704,-0.4703,-0.4664,-0.4663,-0.4662,-0.4661,0,-0.4533,-0.4546,-0.4548,-0.4553,-0.4554,-0.456,-0.4568,-0.4565,-0.46,-0.4598,-0.4596,-0.4598,-0.4602,-0.4602,-0.4608,-0.4619,-0.4645,-0.465,-0.4643,-0.4634,-0.4623,-0.4627,-0.4736,-0.4652,-0.4653,-0.4653,-0.4654,-0.4654,-0.4469,-0.446,-0.4475,-0.4475,-0.4485,-0.4491,-0.4485,-0.4502,-0.4502,-0.4507,-0.4526,-0.4521,-0.4534,-0.4545,-0.4553,-0.4549,-0.4566,-0.4557,-0.4555,-0.4552,-0.4546,-0.4624,-0.455,-0.4551,-0.4551,-0.4551,-0.4551,0,-0.4389,-0.4401,-0.44,-0.441,-0.4409,-0.4434,-0.4444,-0.4442,-0.4437,-0.4447,-0.4449,-0.4446,-0.4446,-0.4467,-0.4469,-0.4462,-0.4473,-0.4461,-0.4461,-0.4463,-0.4531,-0.4536,-0.4451,-0.4451,-0.4451,-0.4451,-0.4451,-0.4451,-0.4347,-0.4333,-0.4347,-0.4337,-0.4349,-0.4344,-0.4347,-0.4353,-0.4361,-0.4357,-0.4357,-0.437,-0.4384,-0.4388,-0.4388,-0.4394,-0.4393,-0.4376,-0.4386,-0.4449,-0.4459,-0.4468,-0.4472,-0.4376,-0.4375,-0.4318,-0.4317,-0.4317]}]]